Location: Berua Church
(35.0423°N, 88.5987°W)
Time: 07:04:23
(UTC+00:00)

Cosmos 1263 - Pass Details

Date: 08 December 2019
Orbit: 386 x 1339 km, 82.9° (Epoch: 20 January)

Event Time Altitude Azimuth Distance (km) Brightness Sun altitude
Rises 23:47:55 0° 187° (S) 2,541 8.6 -13.1°
Reaches altitude 10° 23:50:08 10° 189° (S) 1,570 7.5 -13.6°
Maximum altitude 23:53:26 78° 275° (W) 422 4.3 -14.2°
Drops below altitude 10° 23:56:26 10° 3° (N) 1,427 6.7 -14.8°
Enters shadow 23:56:51 - 4° (N) 1,609 7.0 -14.9°
